Terminal Aerodrome Forecast
Issued by NWS

Home | Current Version | Previous Version | Text Only | Print | Product List | Glossary Off
Versions: 1 2 3 4 5 6 7 8 9 10 11 12 13 14 15 16 17 18 19 20 21 22 23 24 25 26 27 28 29 30 31 32 33 34 35

000
FTUS43 KLOT 131500 AAB
TAFORD
TAF AMD
KORD 131545Z 1316/1418 36010KT P6SM SCT010 BKN020
     FM131900 35008KT P6SM FEW030 SCT250
     FM132200 03007KT P6SM FEW250
     FM140000 VRB04KT P6SM FEW250
     FM141500 22009KT P6SM FEW035 SCT250=

USA.gov is the U.S. government's official web portal to all federal, state and local government web resources and services.